PBO Station Position Time Series. Reference Frame : NAM14
Format Version,1.1.0
4-character ID,BLAS
Station name,Blaasor
Begin Date, 2008-07-08
End Date, 2019-10-07
Release Date, 2019-10-08
Reference position, 79.5386074267 North Latitude, -22.9747195642 East Longitude, 484.05114 meters elevation,
Date, North (mm), East (mm), Vertical (mm), North Std. Deviation (mm), East Std. Deviation (mm),              Vertical Std. Deviation (mm), Quality,
2008-07-08,0.00, 0.00, 0.00, 1.91, 1.59, 10.91, repro,
2008-07-09,0.30, 0.74, -8.97, 1.93, 1.59, 11.11, repro,
2008-07-10,1.84, -0.13, -13.86, 2.03, 1.70, 11.66, repro,
2008-07-11,-0.49, 0.66, -16.63, 1.99, 1.60, 11.33, repro,
2008-07-12,0.10, 0.76, -10.50, 1.98, 1.62, 11.41, repro,
2008-07-13,-1.60, 2.58, -10.21, 2.02, 1.74, 11.75, repro,
2008-07-14,-1.87, 2.44, -10.41, 2.14, 1.71, 12.77, repro,
2008-07-15,-1.62, 2.94, -9.58, 2.03, 1.71, 12.01, repro,
2008-07-16,-0.07, 1.49, -6.17, 2.05, 1.67, 11.85, repro,
2008-07-17,-0.71, 0.34, -4.49, 2.01, 1.69, 11.62, repro,
2008-07-18,1.63, 1.14, -7.14, 2.01, 1.66, 11.48, repro,
2008-07-19,-0.21, 1.09, -3.81, 1.96, 1.62, 11.22, repro,
2008-07-20,0.52, 1.34, -0.96, 1.89, 1.57, 10.83, repro,
2008-07-21,-0.40, 1.45, -6.91, 1.98, 1.62, 11.38, repro,
2008-07-22,-1.28, 1.27, -11.47, 1.99, 1.64, 11.54, repro,
2008-07-23,-1.40, 3.00, -1.04, 2.06, 1.68, 11.80, repro,
2008-07-24,0.16, 0.24, -3.08, 2.03, 1.65, 11.69, repro,
2008-07-25,-0.25, -0.15, -1.10, 1.99, 1.64, 11.68, repro,
2008-07-26,-1.01, 0.79, -3.00, 1.94, 1.62, 11.24, repro,
2008-07-27,1.36, 0.78, -10.90, 2.03, 1.66, 11.36, repro,
2008-07-28,-0.01, 0.22, -6.23, 1.98, 1.61, 11.25, repro,
2008-07-29,1.02, 0.82, -14.86, 1.94, 1.59, 10.92, repro,
2008-07-30,1.60, 0.10, -15.91, 2.07, 1.72, 11.24, repro,
2008-07-31,-1.30, 0.36, -9.68, 1.92, 1.62, 11.20, repro,
2008-08-01,-0.81, 0.30, -11.03, 1.98, 1.63, 11.26, repro,
2008-08-02,-0.57, 0.17, -12.79, 1.91, 1.58, 10.92, repro,
2008-08-03,-1.99, 0.00, -5.66, 2.00, 1.67, 11.58, repro,
2008-08-04,0.58, -0.22, -9.49, 2.02, 1.68, 11.24, repro,
2008-08-05,-1.03, 0.81, -12.77, 1.92, 1.59, 10.96, repro,
2008-08-06,-2.18, 0.10, -8.34, 1.98, 1.64, 11.35, repro,
2008-08-07,-1.40, -0.27, -7.44, 2.06, 1.70, 11.66, repro,
2008-08-08,2.19, -0.77, 2.69, 2.00, 1.66, 11.33, repro,
2008-08-09,-1.37, 1.47, -6.57, 2.12, 1.75, 12.43, repro,
2008-08-10,-1.20, 0.17, -4.34, 2.04, 1.66, 11.73, repro,
2008-08-11,-1.32, 2.22, -1.02, 2.15, 1.79, 12.53, repro,
2008-08-12,-0.10, 0.48, -9.58, 2.10, 1.77, 11.89, repro,
2008-08-13,-2.24, 0.79, 8.52, 2.06, 1.70, 11.31, repro,
2008-08-14,-2.10, 0.46, 1.01, 1.98, 1.60, 11.35, repro,
2008-08-15,-0.93, 1.22, -1.11, 2.06, 1.71, 11.58, repro,
2008-08-16,-2.15, 1.32, -3.47, 1.91, 1.58, 10.98, repro,
2008-08-17,-2.27, 1.41, -0.88, 2.03, 1.66, 11.41, repro,
2008-08-18,-2.51, 0.60, 5.21, 2.00, 1.65, 11.48, repro,
2008-08-19,-2.64, 1.26, 1.96, 2.05, 1.65, 11.75, repro,
2008-08-20,-2.68, 0.83, 7.60, 2.00, 1.61, 11.49, repro,
2008-08-21,-1.83, -0.44, 2.09, 2.02, 1.63, 11.54, repro,
2008-08-22,-4.05, 1.18, 0.47, 2.01, 1.63, 11.63, repro,
2008-08-23,-2.03, 0.18, 7.91, 1.97, 1.59, 11.20, repro,
2008-08-24,-3.34, 0.29, 9.25, 1.99, 1.61, 11.31, repro,
2008-08-25,-1.64, -0.71, -0.27, 1.96, 1.58, 11.18, repro,
2008-08-26,-3.31, -0.24, -4.34, 1.95, 1.59, 11.18, repro,
2008-08-27,-4.12, -0.94, -4.73, 1.97, 1.62, 11.33, repro,
2008-08-28,-4.82, -1.90, -3.10, 2.00, 1.65, 11.43, repro,
2008-08-29,-3.16, -1.94, -1.97, 1.95, 1.62, 11.12, repro,
2008-08-30,-3.15, -0.29, -2.46, 1.97, 1.62, 11.21, repro,
2008-08-31,-1.51, 0.12, -6.15, 2.02, 1.64, 11.71, repro,
2008-09-01,-2.18, -1.07, -4.10, 1.98, 1.63, 11.50, repro,
2008-09-02,-0.51, -1.48, 0.26, 2.00, 1.65, 11.59, repro,
2008-09-03,0.19, -0.18, 6.65, 2.06, 1.74, 12.34, repro,
2008-09-04,0.51, -0.47, 15.95, 2.14, 1.76, 12.22, repro,
2008-09-05,-1.44, -0.50, 1.53, 2.09, 1.71, 11.94, repro,
2008-09-06,-2.74, 1.15, -3.29, 2.08, 1.70, 11.95, repro,
2008-09-07,3.81, 2.97, 0.54, 2.18, 1.79, 12.05, repro,
2008-09-08,1.49, 0.33, -1.19, 2.01, 1.65, 11.57, repro,
2008-09-09,-0.56, -0.66, -2.72, 1.98, 1.66, 11.49, repro,
2008-09-10,0.46, -0.15, 1.61, 2.03, 1.67, 11.57, repro,
2008-09-11,-1.77, 0.20, -2.22, 2.01, 1.64, 11.61, repro,
2008-09-12,-1.31, -0.19, -3.98, 1.99, 1.64, 11.38, repro,
2008-09-13,1.18, -0.94, 4.56, 1.96, 1.61, 11.17, repro,
2008-09-14,-0.22, 1.15, 6.04, 2.01, 1.64, 11.48, repro,
2008-09-15,3.37, 1.93, 6.56, 2.01, 1.64, 11.53, repro,
2008-09-16,-0.09, 0.32, 1.20, 2.05, 1.68, 11.89, repro,
2008-09-17,1.66, 1.48, -2.79, 2.05, 1.68, 11.77, repro,
2008-09-18,0.89, 2.33, -0.60, 1.94, 1.58, 11.10, repro,
2008-09-19,0.71, 0.70, 5.87, 1.95, 1.58, 11.15, repro,
2008-09-20,-0.87, 0.16, -9.01, 1.95, 1.59, 11.26, repro,
2008-09-21,-1.12, 0.37, -21.44, 1.95, 1.59, 11.18, repro,
2008-09-22,-4.54, -2.11, -19.64, 1.95, 1.61, 11.09, repro,
2008-09-23,-3.52, 0.18, -11.90, 1.93, 1.59, 11.07, repro,
2008-09-24,-2.38, 0.03, -4.59, 1.95, 1.58, 11.14, repro,
2008-09-25,-2.09, 1.56, -11.41, 1.98, 1.62, 11.34, repro,
2008-09-26,-2.67, 0.69, -7.98, 1.99, 1.60, 11.34, repro,
2008-09-27,-4.75, 1.35, -6.03, 1.97, 1.62, 11.24, repro,
2008-09-28,-5.44, 1.11, -7.76, 1.94, 1.58, 11.13, repro,
2008-09-29,-3.25, 0.87, -11.04, 1.97, 1.63, 11.40, repro,
2008-09-30,-3.26, -0.52, -10.12, 2.00, 1.61, 11.46, repro,
2008-10-01,-2.29, -0.75, -10.45, 2.02, 1.65, 11.66, repro,
2008-10-02,-0.81, -1.42, -20.42, 2.04, 1.65, 11.65, repro,
2008-10-03,-4.32, -1.42, -8.94, 1.95, 1.59, 11.23, repro,
2008-10-04,-2.83, -0.71, -4.27, 2.08, 1.69, 12.05, repro,
2008-10-05,-0.92, -0.43, 0.18, 1.99, 1.60, 11.39, repro,
2008-10-06,-1.75, 2.01, -4.61, 1.97, 1.59, 11.32, repro,
2008-10-07,-1.03, 1.46, -13.78, 1.96, 1.60, 11.28, repro,
2008-10-08,-1.60, -0.13, -2.14, 1.98, 1.62, 11.25, repro,
2008-10-09,0.23, 1.26, -5.00, 1.89, 1.57, 10.88, repro,
2008-10-10,-1.08, 1.67, -9.23, 1.92, 1.60, 11.10, repro,
2008-10-11,-2.13, 2.03, -0.59, 1.95, 1.60, 11.10, repro,
2008-10-12,-1.67, 2.60, -3.91, 1.95, 1.59, 11.12, repro,
2008-10-13,-1.85, 0.97, -5.23, 1.92, 1.58, 11.11, repro,
2008-10-14,2.37, 1.48, -9.06, 1.98, 1.60, 11.47, repro,
2008-10-15,0.46, 1.70, -6.68, 1.93, 1.60, 11.14, repro,
2008-10-16,1.11, 2.52, -0.55, 2.06, 1.65, 11.89, repro,
2008-10-17,0.83, 2.01, -10.24, 1.95, 1.57, 11.08, repro,
2008-10-18,0.65, 2.39, -8.95, 1.90, 1.56, 10.87, repro,
2008-10-19,-1.04, -0.73, -2.59, 1.93, 1.63, 11.19, repro,
2008-10-20,-2.90, 1.21, -2.40, 1.93, 1.61, 11.09, repro,
2008-10-21,-1.43, 2.40, -0.86, 1.92, 1.61, 11.02, repro,
2008-10-22,-3.50, 0.81, -5.66, 1.98, 1.63, 11.28, repro,
2008-10-23,1.20, 1.68, -8.02, 1.97, 1.63, 11.36, repro,
2008-10-24,-2.52, 0.36, -2.18, 1.91, 1.56, 10.95, repro,
2008-10-25,-1.53, 0.04, 1.42, 1.92, 1.59, 11.02, repro,
2008-10-26,-2.47, 0.73, -12.74, 1.92, 1.59, 11.10, repro,
2008-10-27,-1.22, -0.02, -15.82, 1.90, 1.57, 10.91, repro,
2008-10-28,-1.57, 0.24, -6.83, 2.02, 1.70, 11.89, repro,
2008-10-29,0.36, 0.97, -2.27, 2.01, 1.69, 11.50, repro,
2008-10-30,-0.83, 1.93, -10.24, 1.97, 1.61, 11.35, repro,
2008-10-31,1.63, 1.74, -2.59, 1.96, 1.61, 11.31, repro,
2008-11-01,-0.07, 2.98, -8.31, 1.94, 1.62, 11.09, repro,
2008-11-02,-2.90, 0.90, -11.04, 1.90, 1.56, 10.81, repro,
2008-11-03,-2.83, 0.79, -3.75, 1.96, 1.65, 11.28, repro,
2008-11-04,-2.49, 1.26, -6.21, 1.92, 1.56, 10.94, repro,
2008-11-05,-1.77, 1.54, -13.97, 1.93, 1.57, 11.04, repro,
2008-11-06,-1.39, 1.49, -6.63, 1.92, 1.57, 11.04, repro,
2008-11-07,-0.28, 0.95, -7.40, 1.93, 1.62, 11.19, repro,
2008-11-08,-0.26, -0.23, -5.97, 1.96, 1.63, 11.32, repro,
2008-11-09,-2.74, -0.09, 3.96, 2.01, 1.67, 11.59, repro,
2008-11-10,-2.45, -0.05, -8.29, 1.98, 1.62, 11.43, repro,
2008-11-11,-3.35, -0.19, -20.65, 1.96, 1.61, 11.27, repro,
2008-11-12,-2.19, -0.40, -6.93, 1.95, 1.61, 11.24, repro,
2008-11-13,-1.76, 1.87, -6.68, 2.05, 1.66, 11.60, repro,
2008-11-14,-3.12, 0.07, -6.84, 1.98, 1.67, 11.30, repro,
2008-11-15,-1.90, 2.82, -12.67, 1.99, 1.62, 11.43, repro,
2008-11-16,-3.17, 0.54, -8.20, 1.96, 1.61, 11.27, repro,
2008-11-17,-2.03, 1.35, -13.93, 1.99, 1.63, 11.64, repro,
2008-11-18,-0.67, 1.35, -7.60, 1.94, 1.62, 11.16, repro,
2008-11-19,-0.29, 0.46, -7.20, 1.93, 1.58, 11.06, repro,
2008-11-20,-1.87, 0.47, -4.90, 2.00, 1.64, 11.55, repro,
2008-11-21,1.66, 3.49, -13.91, 2.01, 1.63, 11.50, repro,
2008-11-22,-1.09, -0.05, -9.44, 1.98, 1.63, 11.32, repro,
2008-11-23,-1.65, 0.96, -9.66, 2.02, 1.62, 11.69, repro,
2008-11-24,-0.89, 2.30, -9.78, 2.07, 1.73, 12.07, repro,
2008-11-25,-0.61, 1.29, -2.77, 2.13, 1.73, 12.38, repro,
2008-11-26,-1.37, 2.21, -11.97, 2.09, 1.69, 11.72, repro,
2008-11-27,-1.82, 0.81, -9.96, 1.95, 1.64, 11.33, repro,
2008-11-28,-3.64, 1.03, -7.10, 2.04, 1.70, 11.92, repro,
2008-11-29,-2.56, 1.05, -4.49, 1.98, 1.64, 11.38, repro,
2008-11-30,-1.56, 0.19, -5.35, 1.96, 1.61, 11.19, repro,
2008-12-01,-1.13, -0.26, -8.27, 1.96, 1.60, 11.14, repro,
2008-12-02,0.88, 1.02, -8.50, 2.01, 1.63, 11.60, repro,
2008-12-03,1.70, 2.23, -6.67, 1.98, 1.66, 11.49, repro,
2008-12-04,1.31, 1.51, 0.37, 2.02, 1.69, 11.64, repro,
2008-12-05,0.92, 0.20, -1.12, 2.00, 1.65, 11.55, repro,
2008-12-06,-1.25, 0.06, 1.29, 2.10, 1.75, 12.15, repro,
2008-12-07,-3.12, 0.38, -2.60, 2.05, 1.69, 11.82, repro,
2008-12-08,-0.49, 0.24, -8.51, 1.98, 1.63, 11.32, repro,
2008-12-09,-0.21, -1.08, -7.06, 2.00, 1.63, 11.46, repro,
2008-12-10,1.46, -0.11, 6.93, 1.94, 1.58, 11.08, repro,
2008-12-11,1.58, 1.50, -1.44, 2.00, 1.64, 11.69, repro,
2008-12-12,-2.43, 2.14, -8.73, 2.00, 1.67, 11.57, repro,
2008-12-13,-0.55, 1.05, -22.13, 1.95, 1.61, 11.23, repro,
2008-12-14,-0.02, 0.91, -9.81, 1.91, 1.62, 10.98, repro,
2008-12-15,2.23, 1.06, 1.18, 1.92, 1.60, 11.07, repro,
2008-12-16,2.23, 3.15, 1.68, 1.93, 1.61, 11.07, repro,
2008-12-17,0.06, 4.01, -12.85, 1.96, 1.60, 11.23, repro,
2008-12-18,2.62, 2.33, -12.50, 1.91, 1.56, 10.93, repro,
2008-12-19,-0.53, 2.53, -18.98, 1.98, 1.63, 11.30, repro,
2008-12-20,-0.16, 3.00, -8.23, 1.90, 1.56, 10.80, repro,
2008-12-21,-0.77, 3.28, -14.26, 1.90, 1.57, 10.82, repro,
2008-12-22,0.11, 4.39, -13.23, 1.96, 1.62, 11.01, repro,
2008-12-23,-0.94, 2.75, -16.29, 1.94, 1.61, 11.11, repro,
2008-12-24,2.27, 2.67, -1.16, 1.93, 1.62, 11.14, repro,
2008-12-25,0.65, 4.24, -9.13, 1.93, 1.57, 10.92, repro,
2008-12-26,-1.19, 3.89, -15.29, 1.92, 1.59, 10.97, repro,
2008-12-27,1.44, 2.39, -10.72, 1.92, 1.61, 10.95, repro,
2008-12-28,1.98, 2.49, -13.21, 1.91, 1.57, 10.91, repro,
2008-12-29,0.77, 4.06, -21.20, 1.90, 1.58, 10.91, repro,
2008-12-30,-1.48, 3.16, -17.64, 1.97, 1.60, 11.29, repro,
2008-12-31,-0.26, 2.40, -17.80, 1.94, 1.57, 11.08, repro,
2009-01-01,-1.17, 1.25, -13.62, 1.90, 1.58, 10.90, repro,
2009-01-02,-1.32, 0.67, -10.78, 1.96, 1.61, 11.19, repro,
2009-01-03,-2.84, 0.78, -13.18, 1.94, 1.59, 11.09, repro,
2009-01-04,-0.78, 0.73, -6.30, 2.04, 1.65, 11.83, repro,
2009-01-05,-0.42, 1.38, -5.68, 2.04, 1.65, 11.82, repro,
2009-01-06,-0.28, 0.75, -10.00, 1.96, 1.61, 11.27, repro,
2009-01-07,-0.46, 2.58, 0.78, 1.96, 1.61, 11.28, repro,
2009-01-08,-0.50, 2.92, -6.86, 1.99, 1.62, 11.54, repro,
2009-01-09,0.03, 3.86, -1.78, 2.09, 1.66, 12.00, repro,
2009-01-10,0.02, 3.78, -0.02, 2.00, 1.63, 11.54, repro,
2009-01-11,-1.16, 2.88, -5.64, 1.97, 1.60, 11.25, repro,
2009-01-12,1.45, 2.77, -9.73, 2.23, 1.80, 12.66, repro,
2009-01-13,0.70, 2.06, -5.24, 2.10, 1.73, 12.12, repro,
2009-01-14,2.84, 3.91, -3.56, 2.05, 1.65, 11.70, repro,
2009-01-15,-0.84, 5.39, -11.88, 2.00, 1.63, 11.42, repro,
2009-01-16,2.33, 3.79, -0.89, 1.98, 1.62, 11.43, repro,
2009-01-17,-1.34, 2.55, -8.90, 1.99, 1.63, 11.46, repro,
2009-01-18,0.64, 1.93, -9.58, 2.15, 1.77, 12.10, repro,
2009-01-19,2.70, 4.52, -7.86, 1.97, 1.63, 11.26, repro,
2009-01-20,2.70, 4.91, -9.18, 2.15, 1.70, 12.08, repro,
2009-01-21,4.19, 4.38, -7.47, 2.11, 1.75, 12.16, repro,
2009-01-22,3.35, 2.27, -13.32, 2.02, 1.64, 11.66, repro,
2009-01-23,-0.30, 3.00, -19.28, 2.00, 1.63, 11.33, repro,
2009-01-24,1.13, 1.72, -6.05, 2.09, 1.72, 12.09, repro,
2009-01-25,0.34, 1.87, -2.91, 2.08, 1.70, 11.94, repro,
2009-01-26,2.03, 3.11, 1.60, 1.99, 1.61, 11.37, repro,
2009-01-27,3.38, 3.90, -2.74, 1.97, 1.62, 11.27, repro,
2009-01-28,0.93, 2.57, -5.45, 1.95, 1.60, 11.15, repro,
2009-01-29,1.83, 4.07, -2.68, 1.89, 1.58, 10.86, repro,
2009-01-30,4.45, 2.88, 0.49, 1.93, 1.57, 10.94, repro,
2009-01-31,5.52, 1.92, -0.83, 1.94, 1.61, 11.11, repro,
2009-02-01,3.14, 3.31, -8.94, 1.91, 1.57, 10.90, repro,
2009-02-02,2.10, 1.62, -10.95, 1.90, 1.58, 10.95, repro,
2009-02-03,3.11, 0.76, -11.18, 1.88, 1.59, 10.86, repro,
2009-02-04,3.24, 2.59, -6.44, 2.01, 1.65, 11.60, repro,
2009-02-05,1.50, 1.24, -2.88, 1.93, 1.58, 11.03, repro,
2009-02-06,-2.57, 1.68, 3.45, 1.92, 1.58, 10.91, repro,
2009-02-07,0.87, 2.14, -0.74, 1.92, 1.58, 10.97, repro,
2009-02-08,-0.62, 0.59, -2.77, 1.89, 1.58, 10.84, repro,
2009-02-09,-0.20, 1.45, -8.74, 1.93, 1.57, 10.98, repro,
2009-02-10,-0.51, 0.67, -3.61, 1.92, 1.57, 10.92, repro,
2009-02-11,0.13, 0.08, -5.46, 1.99, 1.61, 11.33, repro,
2009-02-12,-1.70, 1.73, -5.83, 1.94, 1.59, 11.08, repro,
2009-02-13,-0.02, 3.92, -17.27, 1.94, 1.60, 11.18, repro,
2009-02-14,-0.27, 3.71, -17.19, 1.92, 1.56, 10.96, repro,
2009-02-15,1.72, 4.52, -4.52, 1.94, 1.58, 11.12, repro,
2009-02-16,1.44, 3.47, -6.71, 1.94, 1.60, 11.06, repro,
2009-02-17,1.94, 2.26, -3.35, 1.95, 1.62, 11.27, repro,
2009-02-18,0.26, 4.50, -10.23, 1.91, 1.58, 10.99, repro,
2009-02-19,-1.49, 4.36, -13.20, 1.88, 1.56, 10.81, repro,
2009-02-20,-0.08, 4.73, -11.77, 1.90, 1.56, 10.88, repro,
2009-02-21,-1.39, 4.54, -18.41, 1.95, 1.60, 11.29, repro,
2009-02-22,2.30, 3.09, -12.61, 1.93, 1.61, 11.17, repro,
2009-02-23,0.63, 4.86, -16.15, 1.98, 1.61, 11.23, repro,
2009-02-24,0.50, 3.33, -18.34, 2.48, 2.21, 11.87, repro,
2009-02-25,2.32, 5.83, -18.11, 271.24, 431.09, 875.77, repro,
2009-02-26,1.80, 3.44, -17.35, 1.99, 1.59, 11.40, repro,
2009-02-27,2.64, 3.61, -17.96, 1.99, 1.61, 11.46, repro,
2009-02-28,0.70, 4.52, -16.75, 1.97, 1.61, 11.31, repro,
2009-03-01,-0.09, 5.75, -19.12, 1.93, 1.60, 11.12, repro,
2009-03-02,1.58, 3.20, -22.39, 1.90, 1.57, 10.84, repro,
2009-03-03,2.55, 3.75, -15.63, 1.97, 1.62, 11.38, repro,
2009-03-04,-0.53, 2.73, -21.56, 1.94, 1.59, 11.00, repro,
2009-03-05,2.95, 5.03, -9.27, 1.92, 1.59, 11.04, repro,
2009-03-06,3.18, 3.79, -9.87, 1.98, 1.61, 11.33, repro,
2009-03-07,1.61, 2.67, -19.34, 1.91, 1.57, 11.01, repro,
2009-03-08,1.37, 3.27, -15.92, 1.95, 1.62, 11.21, repro,
2009-03-09,2.20, 3.01, -14.19, 1.90, 1.58, 10.84, repro,
2009-03-10,0.07, 2.56, -17.94, 1.96, 1.60, 11.34, repro,
2009-03-11,2.88, 3.51, -14.00, 1.93, 1.61, 11.10, repro,
2009-03-12,0.56, 3.69, -20.03, 2.50, 2.20, 14.80, repro,
2009-03-13,-2.77, 2.72, -22.96, 1.92, 1.58, 11.03, repro,
2009-03-14,0.61, 2.19, -18.13, 1.90, 1.58, 10.91, repro,
2009-03-15,0.24, 2.84, -20.65, 1.95, 1.62, 11.28, repro,
2009-03-16,1.01, 2.33, -21.52, 1.90, 1.58, 10.90, repro,
2009-03-17,-1.87, 2.10, -28.27, 1.96, 1.62, 11.37, repro,
2009-03-18,-0.67, 1.95, -17.46, 1.93, 1.60, 11.14, repro,
2009-03-19,-1.27, 1.93, -18.38, 1.88, 1.56, 10.75, repro,
2009-03-20,-0.25, 1.57, -7.65, 1.92, 1.58, 10.98, repro,
2009-03-21,-0.85, 1.19, -21.04, 1.95, 1.61, 11.29, repro,
2009-03-22,-1.21, 1.36, -19.42, 1.94, 1.61, 11.37, repro,
2009-03-23,-3.84, -0.19, -17.56, 1.90, 1.58, 11.02, repro,
2009-03-24,-3.51, 0.32, -17.32, 1.89, 1.57, 10.94, repro,
2009-03-25,-4.02, 0.83, -16.77, 1.89, 1.57, 10.88, repro,
2009-03-26,-3.15, 1.53, -11.04, 2.25, 1.82, 13.09, repro,
2009-03-27,-2.98, 2.62, -16.71, 2.02, 1.62, 11.56, repro,
2009-03-28,-2.46, 2.71, -17.34, 1.94, 1.61, 11.29, repro,
2009-03-29,-2.17, 3.47, -20.50, 1.93, 1.60, 11.05, repro,
2009-03-30,-5.37, 2.05, -16.93, 1.94, 1.59, 11.15, repro,
2009-03-31,-5.13, 0.56, -24.78, 1.94, 1.60, 11.10, repro,
2009-04-01,-2.85, 1.40, -23.30, 1.95, 1.60, 11.29, repro,
2009-04-02,-4.48, 0.76, -21.94, 1.98, 1.64, 11.22, repro,
2009-04-03,-3.63, 0.50, -32.65, 1.96, 1.66, 11.16, repro,
2009-04-04,-4.11, 1.07, -23.81, 1.91, 1.61, 10.89, repro,
2009-04-05,-2.67, 1.11, -22.28, 1.93, 1.61, 10.98, repro,
2009-04-06,-3.11, 1.17, -18.42, 1.97, 1.62, 11.27, repro,
2009-04-07,-0.81, 2.47, -13.47, 1.94, 1.60, 11.14, repro,
2009-04-08,-3.07, 3.42, -25.40, 1.95, 1.62, 11.16, repro,
2009-04-09,-3.82, 1.63, -19.63, 1.97, 1.63, 11.16, repro,
2009-04-10,-2.09, 3.14, -11.02, 1.95, 1.64, 11.43, repro,
2009-04-11,-4.83, 2.18, -16.83, 1.93, 1.63, 11.09, repro,
2009-04-12,-1.86, 2.51, -23.72, 1.97, 1.66, 11.25, repro,
2009-04-13,-1.77, 2.42, -23.01, 1.97, 1.63, 11.26, repro,
2009-04-14,-2.36, 1.31, -29.46, 1.96, 1.61, 11.31, repro,
2009-04-15,-2.00, 2.51, -33.40, 1.94, 1.64, 11.07, repro,
2009-04-16,-2.67, -0.67, -23.74, 1.96, 1.63, 11.20, repro,
2009-04-17,-0.81, 0.04, -16.23, 2.02, 1.66, 11.48, repro,
2009-04-18,-2.69, 0.34, -24.29, 1.97, 1.62, 11.20, repro,
2009-04-19,-4.08, 1.50, -19.44, 1.99, 1.64, 11.44, repro,
2009-04-20,-4.26, 0.66, -13.23, 2.01, 1.67, 11.41, repro,
2009-04-21,-3.85, 0.88, -9.74, 1.96, 1.68, 11.28, repro,
2009-04-22,-4.04, 0.20, -14.86, 1.92, 1.59, 10.91, repro,
2009-04-23,-2.65, 1.77, -12.65, 1.93, 1.61, 11.11, repro,
2009-04-24,-2.29, 2.23, -13.44, 1.93, 1.58, 10.96, repro,
2009-04-25,-2.53, 2.50, -17.19, 1.97, 1.60, 11.24, repro,
2009-04-26,-3.20, 1.24, -14.45, 1.97, 1.63, 11.25, repro,
2009-04-27,-3.00, 0.68, -27.24, 4.96, 4.59, 29.66, repro,
2009-04-28,-3.12, 2.54, -8.11, 1.86, 1.55, 10.91, repro,
2009-04-29,-3.90, 2.49, -26.20, 1.93, 1.58, 11.32, repro,
2009-04-30,-4.57, 1.71, -23.09, 1.94, 1.57, 11.40, repro,
2009-05-01,-3.78, 0.80, -18.88, 1.89, 1.54, 11.12, repro,
2009-05-02,-3.73, 1.76, -11.46, 1.87, 1.54, 11.02, repro,
2009-05-03,-1.17, 2.50, -10.86, 1.88, 1.56, 11.10, repro,
2009-05-04,-0.85, 1.78, -9.55, 1.85, 1.52, 10.72, repro,
2009-05-05,-2.46, 0.33, -9.04, 1.88, 1.53, 10.92, repro,
2009-05-06,-3.14, 1.20, -12.03, 1.91, 1.57, 11.14, repro,
2009-05-07,-3.92, 1.49, -24.14, 1.88, 1.54, 10.99, repro,
2009-05-08,-1.99, 2.17, -18.04, 1.88, 1.58, 10.99, repro,
2009-05-09,-2.09, 2.51, -14.81, 1.90, 1.62, 11.33, repro,
2009-05-10,-3.30, 3.16, -11.05, 1.84, 1.51, 10.68, repro,
2009-05-11,-4.77, 3.64, -14.59, 1.88, 1.56, 10.98, repro,
2009-05-12,-3.02, 3.03, -14.19, 1.95, 1.56, 11.29, repro,
2009-05-13,-0.36, 1.35, -13.29, 1.88, 1.52, 10.89, repro,
2009-05-14,-1.64, 1.07, -11.84, 1.87, 1.54, 10.82, repro,
2009-05-15,-2.78, 1.64, -22.64, 1.84, 1.54, 10.80, repro,
2009-05-16,-4.21, 1.24, -28.58, 1.91, 1.57, 11.02, repro,
2009-05-17,-1.99, 3.53, -16.21, 1.88, 1.55, 11.04, repro,
2009-05-18,-2.73, 1.03, -15.67, 1.87, 1.53, 10.90, repro,
2009-05-19,-3.10, 0.17, -20.59, 1.94, 1.60, 11.33, repro,
2009-05-20,-0.08, 2.27, -10.00, 1.86, 1.53, 10.74, repro,
2009-05-21,-3.15, 3.00, -12.99, 1.87, 1.56, 11.07, repro,
2009-05-22,-1.74, 3.62, -11.75, 1.88, 1.54, 10.89, repro,
2009-05-23,-1.48, 2.36, -8.85, 1.93, 1.57, 11.41, repro,
2009-05-24,-3.74, 0.40, -17.88, 1.87, 1.53, 10.93, repro,
2009-05-25,-2.36, 1.90, -15.98, 1.86, 1.54, 10.87, repro,
2009-05-26,-2.61, 0.92, -16.63, 1.86, 1.52, 10.80, repro,
2009-05-27,-2.30, 0.75, -17.02, 1.86, 1.56, 10.91, repro,
2009-05-28,-2.59, 0.89, -16.30, 1.90, 1.56, 11.17, repro,
2009-05-29,-3.29, 1.81, -14.88, 1.90, 1.54, 11.07, repro,
2009-05-30,-2.83, 1.88, -10.82, 1.87, 1.54, 10.87, repro,
2009-05-31,-0.11, 1.73, -19.33, 1.86, 1.52, 10.79, repro,
2009-06-01,-3.26, 2.27, -23.05, 1.86, 1.53, 10.82, repro,
2009-06-02,-1.60, 2.41, -14.70, 1.84, 1.52, 10.68, repro,
2009-06-03,-1.33, 2.31, -22.70, 1.90, 1.52, 10.96, repro,
2009-06-04,-1.27, 2.12, -18.85, 1.92, 1.54, 11.18, repro,
2009-06-05,0.17, 0.80, -22.89, 1.86, 1.52, 10.81, repro,
2009-06-06,-1.32, 0.92, -18.00, 1.91, 1.57, 11.23, repro,
2009-06-07,-2.21, 1.45, -13.85, 1.84, 1.52, 10.68, repro,
2009-06-08,-0.54, 0.90, -15.86, 1.87, 1.53, 10.85, repro,
2009-06-09,-0.53, 0.29, -13.30, 1.88, 1.52, 10.89, repro,
2009-06-10,0.24, 0.71, -16.98, 1.89, 1.54, 11.10, repro,
2009-06-11,-2.28, 2.17, -22.15, 1.88, 1.53, 10.97, repro,
2009-06-12,-2.50, 1.93, -18.91, 1.88, 1.56, 10.98, repro,
2009-06-13,-1.05, 2.34, -17.03, 1.86, 1.52, 10.84, repro,
2009-06-14,1.60, 0.97, -17.39, 1.92, 1.58, 11.44, repro,
2009-06-15,0.53, 1.74, -13.90, 1.88, 1.53, 10.91, repro,
2009-06-16,-0.82, 1.30, -14.38, 1.87, 1.53, 10.87, repro,
2009-06-17,2.52, 3.28, -5.53, 1.87, 1.53, 11.01, repro,
2009-06-18,-0.95, 1.20, -16.22, 1.89, 1.55, 11.24, repro,
2009-06-19,-1.19, 2.12, -11.87, 1.87, 1.53, 10.88, repro,
2009-06-20,-0.29, 1.40, -10.04, 1.86, 1.54, 11.04, repro,
2009-06-21,-0.29, 1.86, -10.14, 1.91, 1.56, 11.12, repro,
2009-06-22,-2.62, 1.90, -10.70, 1.86, 1.52, 10.81, repro,
2009-06-23,-0.68, 2.59, -22.72, 1.87, 1.53, 10.95, repro,
2009-06-24,-2.56, 2.39, -21.43, 1.87, 1.53, 10.92, repro,
2009-06-25,-1.06, 2.66, -10.95, 1.86, 1.55, 10.88, repro,
2009-06-26,-1.52, 1.51, -11.31, 1.89, 1.58, 11.01, repro,
2009-06-27,0.03, 1.25, -14.78, 1.93, 1.60, 11.30, repro,
2009-06-28,-0.13, 1.81, -18.41, 1.97, 1.63, 11.68, repro,
2009-06-29,-2.38, 2.17, -22.01, 2.02, 1.68, 11.97, repro,
2009-06-30,-0.67, 2.04, -20.86, 1.89, 1.58, 11.05, repro,
2009-07-01,-1.74, 1.47, -17.97, 1.89, 1.58, 11.00, repro,
2009-07-02,0.52, 0.74, -17.19, 1.90, 1.57, 11.15, repro,
2009-07-03,1.06, 1.36, -18.06, 1.93, 1.54, 11.17, repro,
2009-07-04,-1.99, 0.74, -17.73, 1.90, 1.52, 11.02, repro,
2009-07-05,-0.95, 0.54, -21.15, 1.88, 1.54, 11.01, repro,
2009-07-06,-2.48, 0.49, -18.76, 1.87, 1.54, 10.89, repro,
2009-07-07,-1.87, 0.83, -10.01, 1.92, 1.57, 11.18, repro,
2009-07-08,-2.19, 0.98, -9.19, 1.91, 1.57, 11.21, repro,
2009-07-09,-0.39, 0.32, -11.52, 1.92, 1.56, 11.13, repro,
2009-07-10,1.08, 0.68, -12.71, 1.95, 1.60, 11.44, repro,
2009-07-11,-1.57, -0.24, -20.31, 1.91, 1.54, 11.03, repro,
2009-07-12,-1.37, -0.30, -10.60, 1.86, 1.53, 10.86, repro,
2009-07-13,-3.65, -0.20, -17.72, 1.87, 1.53, 10.86, repro,
2009-07-14,-2.18, 1.10, -23.32, 1.95, 1.59, 11.45, repro,
2009-07-15,-0.33, -0.57, -12.10, 1.89, 1.53, 11.00, repro,
2009-07-16,-1.24, -2.27, -24.31, 1.94, 1.53, 11.13, repro,
2009-07-17,-2.88, 0.53, -11.06, 1.86, 1.52, 10.82, repro,
2009-07-18,-2.59, 0.72, -6.22, 1.89, 1.53, 10.95, repro,
2009-07-19,-2.91, 0.35, -10.00, 1.90, 1.54, 11.08, repro,
2009-07-20,-3.81, 1.02, -18.56, 1.86, 1.51, 10.76, repro,
2009-07-21,6.74, -0.61, -13.97, 2.06, 1.59, 12.24, repro,
2009-07-22,-4.62, 0.23, -12.85, 2.00, 1.57, 11.70, repro,
2009-07-23,-3.48, -0.60, -13.83, 1.90, 1.56, 11.06, repro,
2009-07-24,-3.73, 0.14, -3.24, 1.95, 1.64, 11.46, repro,
2009-07-25,-3.82, -0.15, -7.62, 1.93, 1.62, 11.40, repro,
2009-07-26,-1.17, 1.20, -6.58, 1.91, 1.57, 11.12, repro,
2009-07-27,-2.54, -0.26, -10.18, 1.90, 1.54, 11.06, repro,
2009-07-28,-4.35, -0.78, -19.70, 1.92, 1.55, 11.19, repro,
2009-07-29,-3.35, -0.87, -5.63, 1.87, 1.53, 10.93, repro,
2009-07-30,-4.45, -0.04, -7.19, 1.91, 1.57, 11.08, repro,
2009-07-31,-4.02, -0.65, -8.63, 1.89, 1.53, 10.94, repro,
2009-08-01,-2.70, -0.75, -9.23, 1.91, 1.55, 11.20, repro,
2009-08-02,-2.19, -1.48, -10.31, 1.88, 1.51, 10.86, repro,
2009-08-03,-2.89, -0.69, -8.69, 1.88, 1.53, 10.94, repro,
2009-08-04,-2.08, -0.45, -2.21, 1.88, 1.52, 10.89, repro,
2009-08-05,-4.30, -0.82, 2.74, 1.96, 1.56, 11.40, repro,
2009-08-06,-1.98, -1.08, -11.35, 1.90, 1.54, 11.10, repro,
2009-08-07,-3.41, -0.01, -5.26, 1.91, 1.52, 11.12, repro,
2009-08-08,-4.80, 0.34, -6.42, 1.91, 1.53, 11.04, repro,
2009-08-09,-3.14, 0.19, -10.75, 1.88, 1.52, 10.93, repro,
2009-08-10,-4.13, -1.09, -6.55, 1.89, 1.52, 10.93, repro,
2009-08-11,-3.60, -0.64, -6.23, 1.87, 1.51, 10.89, repro,
2009-08-12,-3.76, -0.40, -6.84, 1.92, 1.52, 11.05, repro,
2009-08-13,-3.65, -0.08, -4.38, 1.88, 1.52, 11.01, repro,
2009-08-14,-3.46, -0.73, -3.85, 1.88, 1.52, 10.95, repro,
2009-08-15,-2.55, -0.25, -4.90, 1.91, 1.53, 11.04, repro,
2009-08-16,-2.29, -1.28, -3.46, 1.89, 1.52, 10.94, repro,
2009-08-17,-1.79, -2.14, 3.36, 1.88, 1.51, 10.87, repro,
2009-08-18,-0.34, -1.82, 7.39, 1.86, 1.51, 10.82, repro,
2009-08-19,-1.31, -2.88, 12.43, 3.92, 3.23, 25.18, repro,
2009-08-20,-2.15, -0.29, -6.69, 1.97, 1.55, 11.33, repro,
2009-08-21,-1.18, -0.25, -2.83, 1.94, 1.58, 11.30, repro,